Weather in Aviemore

United Kingdom     57°11′44″N   3°49′37″W
temp.,
°C
wind,
m/s
gust,
m/s
humid.,
%
clouds,
%
prec.,
mm/h
press.,
hPa
HPBL,
m
10 may, mon
mon1001:00+6sse2389100 0.0 99160
04:00+6se2289100 0.0 99139
07:00+7se1287100 0.0 99281
10:00+11se2364100 0.1 9911168
13:00+13sse2357100 0.4 9911252
16:00+12ssw356197 1.6 9911378
19:00+10s367141 2.1 992986
22:00+6s22934 0.0 99534
11 may, tue
tue1101:00+6sse228497 0.0 99662
04:00+6se1288100 0.1 99762
07:00+7sse1290100 0.1 999127
10:00+6ssw41186100 0.4 1002763
13:00+11sw475277 0.4 10041320
16:00+13s353918 0.0 10052062
19:00+12se114665 0.0 10061532
22:00+5ne2396100 0.1 100897
12 may, wed
wed1201:00+5ne2397100 0.2 1008175
04:00+5nne2599100 3.2 1006258
07:00+5nne2599100 6.9 1006465
10:00+7ne2494100 0.6 1006490
13:00+10ese346797 1.4 10061280
16:00+12se235871 0.3 10061402
19:00+10s236852 0.6 1007526
22:00+7se118543 0.2 101026
13 may, thu
thu1301:00+4s11945 0.3 101112
04:00+3sse11945 0.0 101213
07:00+6se01856 0.0 101392
10:00+11ne125636 0.0 10131209
13:00+13nne334991 0.1 10121730
16:00+11nne5676100 1.1 1013986
19:00+7nne3693100 2.3 1015517
22:00+5nne3594100 0.1 1017348
14 may, fri
fri1401:00+4nne2494100 0.1 1017574
04:00+4nne2595100 0.1 1017453
07:00+4nne2592100 0.1 1017524
10:00+5nne2483100 0.1 1017837
13:00+7nne3368100 0.1 1016996
16:00+9ne435619 0.0 10151148
19:00+7nne436326 0.0 1014894
22:00+2ne229173 0.0 101624